Location: Owl River
(54.8872°N, 111.8867°W)
Time: 15:19:28
(UTC+00:00)

BlueWalker 3 - Pass Details

Date: 25 April 2024
Orbit: 481 x 494 km, 53.2° (Epoch: 26 May)

Event Time Altitude Azimuth Distance (km) Brightness Sun altitude
Rises 05:17:39 0° 275° (W) 2,579 6.1 -16.6°
Reaches altitude 10° 05:19:50 10° 272° (W) 1,697 5.1 -16.8°
Maximum altitude 05:23:37 60° 193° (SSW) 575 1.9 -17.1°
Enters shadow 05:24:42 41° 134° (SE) 735 2.3 -17.1°
